Home > Weather > Mysen > Past weeks

Flag for Norway Past Weather in Mysen, Norway — Yesterday and Last 2 Weeks

Now
61 °F

Partly sunny.


Feels Like: 61 °F
Forecast: 47 / 63 °F
Wind: 8 mph from North

Location: Rygge

Current Time: May 27, 2016 at 10:35:51 AM

Latest Report: May 27, 2016 at 9:00 AM


Visibility: 25 mi

Pressure: 30.12 "Hg

Humidity: 52%

Dew Point: 43 °F

Location of MysenLocation

Past Weather in Mysen — Graph

°F

Mysen Temperature Yesterday

Maximum temperature yesterday: 66 °F (at 5:00 PM)
Minimum temperature yesterday: 47 °F (at 4:00 AM)
Average temperature yesterday: 57 °F

High & Low Weather Summary for the Past Weeks

 TemperatureHumidityPressure
High66 °F (May 26, 5:00 PM)99% (May 22, 3:00 AM)30.18 "Hg (May 22, 3:00 AM)
Low39 °F (May 17, 4:00 AM)26% (May 16, 6:00 PM)29.65 "Hg (May 13, 7:00 PM)
Average52 °F72%29.85 "Hg
* Reported May 12 9:00 AM — May 27 9:00 AM, Mysen, Weather by CustomWeather, © 2016

Note: Actual official high and low records may vary slightly from our data, if they occured in-between our weather recording intervals... More about our weather records

Advertising

Mysen Weather History for the Previous 24 Hours

Scroll right to see more
 ConditionsComfort  
Time TempWeatherWind HumidityBarometerVisibility
9:00 AM
Fri, May 27
61 °FPartly sunny.8 mph52%30.12 "Hg25 mi
8:00 AM60 °FPartly sunny.6 mph54%30.11 "Hg14 mi
7:00 AM56 °FOvercast.6 mph61%30.11 "Hg31 mi
6:00 AM55 °FOvercast.6 mph63%30.11 "Hg28 mi
5:00 AM55 °FOvercast.5 mph65%30.11 "Hg31 mi
4:00 AM55 °FOvercast.5 mph65%30.11 "Hg31 mi
3:00 AM55 °FOvercast.5 mph67%30.11 "Hg31 mi
2:00 AM54 °FOvercast.3 mph68%30.11 "Hg31 mi
1:00 AM55 °FOvercast.3 mph66%30.12 "Hg31 mi
12:00 AM55 °FOvercast.5 mph65%30.12 "Hg31 mi
11:00 PM
Thu, May 26
55 °FClear.2 mph64%30.11 "Hg31 mi
10:00 PM58 °FPartly sunny.3 mph58%30.10 "Hg31 mi
9:00 PM60 °FOvercast.3 mph52%30.09 "Hg31 mi
8:00 PM62 °FOvercast.6 mph46%30.07 "Hg31 mi
7:00 PM63 °FPartly sunny.6 mph42%30.05 "Hg28 mi
6:00 PM65 °FOvercast.6 mph38%30.05 "Hg22 mi
5:00 PM66 °FPassing clouds.7 mph33%30.05 "Hg25 mi
4:00 PM65 °FSunny.6 mph36%30.06 "Hg25 mi
3:00 PM64 °FSunny.6 mph37%30.06 "Hg25 mi
2:00 PM62 °FSunny.6 mph41%30.08 "Hg19 mi
1:00 PM61 °FPassing clouds.6 mph40%30.09 "Hg19 mi
12:00 PM60 °FSunny.5 mph43%30.09 "Hg25 mi
11:00 AM58 °FSunny.6 mph46%30.11 "Hg22 mi
10:00 AM57 °FSunny.6 mph48%30.12 "Hg25 mi
Weather by CustomWeather, © 2016

See weather overviewHow to use our weather pages